Portada
METAR-TAF:

METAR-TAF

Aeropuertos :

Aeropuerto Internacional Arturo Michelena

Valencia, Venezuela

latitud: 10-10N, longitud: 067-56W, altitud: 430 m

Observación

El informe se hizo hace 5 horas y 48 minutos, a las 12:00 UTC
Viento calma
Temperatura 24°C
Humedad 89%
Presión 1014 hPa
Visibilidad 10 km o más
Nubes dispersas a una altura de 1600 ft

METAR: SVVA 151200Z 00000KT 9999 SCT016 24/22 Q1014

Hora: 13:48 (17:48 UTC)


TAF: falta

Observaciones y pronósticos meteorológicos de más de 4000 aeropuertos (mensajes METAR y TAF).

Los puntos amarillos y rojos representan las estaciones disponibles.

Ponga el ratón en el punto deseado para ver el nombre de la estación.

Haga clic para ver las observaciones y los pronósticos meteorológicos.

Para cambiar el mapa : haga clic en los botones verdes con una cruz de color negro para hacer un zoom, en el botón verde con un guión para alejar o en las flechas verdes para mapas adyacentes.


METAR-TAF: